Location: Potomac
(46.8816°N, 113.5795°W)
Time: 01:18:57
(UTC+00:00)

VELOX 1 - Visible Passes

Search period start: 26 June 2022 00:00
Search period end: 06 July 2022 00:00
Orbit: 625 x 638 km, 98.4° (Epoch: 24 June)

Date Brightness Start Highest point End Pass type
(mag) Time Alt. Az. Time Alt. Az. Time Alt. Az.
26 Jun ? 10:48:28 10° ESE 10:51:40 20° ENE 10:54:54 10° NNE visible
29 Jun ? 10:17:53 10° ENE 10:18:32 10° NE 10:19:10 10° NE visible
30 Jun ? 10:36:32 10° E 10:39:09 16° ENE 10:41:46 10° NNE visible
01 Jul ? 10:56:21 10° ESE 10:59:49 23° ENE 11:03:18 10° NNE visible
04 Jul ? 10:24:55 10° E 10:26:35 12° ENE 10:28:15 10° NE visible
05 Jul ? 10:44:14 10° ESE 10:47:12 18° ENE 10:50:10 10° NNE visible
